Regional Weather Roundup
Issued by NWS Charleston, SC

Current Version | Previous Version | Graphics & Text | Print | Product List | Glossary On
Versions: 1 2 3 4 5 6 7 8 9 10 11 12 13 14 15 16 17 18 19 20 21 22 23 24 25 26 27 28 29 30 31 32 33 34 35 36 37 38 39 40 41 42 43 44 45 46 47 48 49 50
000 ASUS42 KCHS 200527 RWRCHS REGIONAL WEATHER ROUNDUP NATIONAL WEATHER SERVICE CHARLESTON SC 1200 AM EST MON NOV 20 2017 NOTE: "FAIR" INDICATES FEW OR NO CLOUDS BELOW 12,000 FEET WITH NO SIGNIFICANT WEATHER AND/OR OBSTRUCTIONS TO VISIBILITY. NOT ALL STATIONS ARE QUALITY CONTROLLED. USE DATA WITH CAUTION... ESPECIALLY DEWPOINT OBSERVATIONS. SCZ027-030-031-034>040-042>050-200600- ...SOUTHEAST SOUTH CAROLINA... CITY SKY/WX TMP DP RH WIND PRES REMARKS N CHARLESTON CLEAR 40 37 89 N8 30.09R WCI 34 WATERFRONT PRK NOT AVBL JOHNS ISLAND FAIR 45 39 81 NW5 30.10R PINOPOLIS N/A 54 37 54 NE13 30.01R MONCKS CORNER FAIR 48 30 49 N6 30.12R SUMMERVILLE FAIR 39 37 93 N3 30.13R BEAUFORT MCAS NOT AVBL BEAUFORT ARPT FAIR 48 37 66 NW7 30.10R HILTON HEAD IS CLEAR 50 37 62 NW5 30.11R WALTERBORO CLEAR 39 34 81 N5 30.14R WCI 36 ALLENDALE FAIR 43 34 70 N5 30.13R ...SOUTHERN MIDLANDS AND PEE DEE... CITY SKY/WX TMP DP RH WIND PRES REMARKS GEORGETOWN FAIR 43 34 70 N3 30.11R KINGSTREE FAIR 41 32 70 CALM 30.12R ORANGEBURG PTCLDY 43 34 70 N5 30.13R BARNWELL N/A 41 34 75 NW3 30.13S AIKEN FAIR 37 30 75 N5 30.15F WCI 34 MANNING FAIR 41 32 70 MISG 30.13R COLUMBIA CLEAR 45 30 55 CALM 30.12R SUMTER CLEAR 44 29 55 N7 30.10R FLORENCE CLEAR 43 30 60 N8 30.12R MYRTLE BEACH CLEAR 46 32 58 N9 30.11R N MYRTLE BEACH PTCLDY 43 34 70 N6 30.10R $$ GAZ063-065-086>088-099>101-113>116-118-119-134>141-150-200600- ...SOUTHEAST GEORGIA... CITY SKY/WX TMP DP RH WIND PRES REMARKS SAVANNAH ARPT CLEAR 44 34 67 NW3 30.11R HUNTER AAF CLEAR 43 33 66 CALM 30.08R FORT STEWART CLEAR 40 35 82 CALM 30.10R STATESBORO CLEAR 44 31 59 N8 30.13R SYLVANIA CLEAR 43 36 75 N6 30.14R CLAXTON FAIR 40 37 86 W3 30.13R ...CSRA...CENTRAL AND FAR SOUTHEAST GEORGIA... CITY SKY/WX TMP DP RH WIND PRES REMARKS THOMSON CLEAR 34 32 91 CALM 30.18S AUGUSTA-BUSH PTCLDY 42 34 73 N6 30.14R AUGUSTA-DANIEL CLEAR 44 33 65 N6 30.13R SWAINSBORO FAIR 41 34 75 NW5 30.15R VIDALIA CLEAR 45 34 65 NW8 30.14R EASTMAN FAIR 40 30 66 CALM 30.18R HAZLEHURST FAIR 45 29 52 N6 30.14R ALMA CLEAR 38 36 92 CALM 30.12R WAYCROSS CLEAR 40 33 76 CALM 30.13R JESUP FAIR 46 34 61 CALM 30.12S BAXLEY FAIR 37 34 87 N5 30.13R WCI 34 BRUNSWICK CLEAR 41 36 81 CALM 30.12R SAINT SIMONS CLEAR 49 38 65 NW3 30.11R $$ SCZ027-028-034-036>038-045-046-048>050-GAZ119-141-200600- ...LAKE AND SUPPLEMENTAL COASTAL OBSERVATIONS... STATION/POSITION TIME TEMP WIND PRES WAVE SWELL AIR SEA DIR/SP/G HT/PER HT/PER/DIR (UTC) (F) (DEG/KT/KT) (MB) (FT/S) (FT/S/D) WINYAH BAY 0430 45 340/ 4 1019.0R LAKE MURRAY 0520 42 CALM / 3 1019.3 ACE BASIN NERRS 0445 46 CALM 1019.0S FORT PULASKI 0500 50 62 320/ 9/ 11 1019.6 SAPELO ISLAND 0500 50 350/ 6 1019.0 $$ ANZ835-935-AMZ111-154-330-350-352-354-370-450-454-472-200600- ...C-MAN AND BUOY OBSERVATIONS... STATION/POSITION TIME TEMP WIND PRES WAVE SWELL AIR SEA DIR/SP/G HT/PER HT/PER/DIR (UTC) (F) (DEG/KT/KT) (MB) (FT/S) (FT/S/D) BUOY 41004 0510 62 73 10/ 14/ 19 1017.6 BUOY 41008 0450 58 67 350/ 19/ 25 1018.5R 4/ 4 FOLLY BEACH CMAN 0500 51 340/ 6/ 8 1019.2R CAPERS NEARSHORE 0508 51 62 10/ 16/ 19 1018.5R FRIPP NEARSHORE 0508 52 62 320/ 14/ 21 1018.2F STATION/POSITION TIME TEMP WIND PRES WAVE SWELL AIR SEA DIR/SP/G HT/PER HT/PER/DIR (UTC) (F) (DEG/KT/KT) (MB) (FT/S) (FT/S/D) 5E ST. MARYS GA 0500 67 N/A 4/ 5 FRYING PAN BUOY 0510 57 69 350/ 17/ 21 1018.0 BUOY 41025 0510 54 69 320/ 21/ 27 1016.5 CAPE LOOKOUT NC 0500 330/ 20/ 23 1018.2R BUOY 41002 0450 69 76 340/ 19/ 25 1013.7R 8/ 8 BUOY 41010 NOT AVBL ST AUGUSTINE FL 0500 55 67 320/ 10/ 13 1019.1R $$

USA.gov is the U.S. government's official web portal to all federal, state and local government web resources and services.